User: anonymous   Login
Location: Mason Neck State Park
(38.6428°N, 77.1981°W)
Time: 00:53:21
(UTC-04:00)
Language:

Cosmos 1400 Rocket - Orbit

View from above orbital plane
View from above orbital plane
View from above satellite
View from above satellite

Ground track
Ground track

The orbit data is extracted from the following two-line orbital elements,

1 13403U 82079B   15208.80451772  .00000294  00000-0  18552-4 0  9997
2 13403 081.1714 339.5546 0035239 033.6582 326.6868 15.05479303792801
Epoch (UTC): 27 July 2015 19:18:30
Eccentricity: 0.0035239
inclination: 81.1714°
perigee height: 525 km
apogee height: 574 km
right ascension of ascending node: 339.5546°
argument of perigee: 33.6582°
revolutions per day: 15.05479303
mean anomaly at epoch: 326.6868°
orbit number at epoch: 79280

The dashed part of the orbit path shows where the satellite is in the earth's shadow,  

DLR